This is the latest recevied weather packets stored in our database for station/object LU4EGV-13. If no packets are shown the sender has not sent any weather packets the latest 10 day(s).
| Time | Temp. | Humidity | Pressure | Rain* | Wind** | Luminosity | Snow |
|---|---|---|---|---|---|---|---|
| 1788541241 | 17.22° C | 29% | 1014.6 hPa | 0 mm | - | - | - |
| 1788540635 | 17.78° C | 28% | 1014.7 hPa | 0 mm | - | - | - |
| 1788540041 | 17.22° C | 31% | 1014.7 hPa | 0 mm | - | - | - |
| 1788539427 | 17.22° C | 30% | 1014.9 hPa | 0 mm | - | - | - |
| 1788538821 | 17.22° C | 32% | 1015.2 hPa | 0 mm | - | - | - |
| 1788538234 | 16.67° C | 31% | 1015.1 hPa | 0 mm | - | - | - |
| 1788537604 | 16.67° C | 33% | 1015.3 hPa | 0 mm | - | - | - |
| 1788536997 | 16.67° C | 32% | 1015.6 hPa | 0 mm | - | - | - |
| 1788536391 | 16.67° C | 38% | 1015.5 hPa | 0 mm | - | - | - |
| 1788535785 | 15.56° C | 40% | 1015.6 hPa | 0 mm | - | - | - |
| 1788535180 | 16.11° C | 38% | 1015.7 hPa | 0 mm | - | - | - |
| 1788534573 | 15.56° C | 35% | 1015.7 hPa | 0 mm | - | - | - |
| 1788533967 | 15.56° C | 36% | 1015.8 hPa | 0 mm | - | - | - |
| 1788533361 | 15° C | 39% | 1016 hPa | 0 mm | - | - | - |
| 1788532754 | 14.44° C | 42% | 1016 hPa | 0 mm | - | - | - |
| 1788532175 | 14.44° C | 43% | 1016.1 hPa | 0 mm | - | - | - |
| 1788531542 | 14.44° C | 45% | 1016.3 hPa | 0 mm | - | - | - |
| 1788530935 | 14.44° C | 45% | 1016.4 hPa | 0 mm | - | - | - |
| 1788530330 | 13.89° C | 47% | 1016.5 hPa | 0 mm | - | - | - |
| 1788529724 | 13.89° C | 46% | 1016.4 hPa | 0 mm | - | - | - |
| 1788529117 | 13.89° C | 52% | 1016.7 hPa | 0 mm | - | - | - |
| 1788528523 | 13.33° C | 54% | 1016.5 hPa | 0 mm | - | - | - |
| 1788527905 | 13.33° C | 59% | 1016.4 hPa | 0 mm | - | - | - |
| 1788527301 | 12.78° C | 63% | 1016.3 hPa | 0 mm | - | - | - |
| 1788526692 | 12.78° C | 68% | 1016.4 hPa | 0 mm | - | - | - |
* Rain latest hour (hover to see other rain measurements)
** Current wind speed in m/s (hover to see current wind gust speed)